This demonstration page uses our WeatherBlox Daily Observations layout. Learn more.

38.88101, -77.10428

Hourly Observations for February 22, 2018

Temp ( °F °C ) Dew Point ( °F °C ) Humidity (%) Winds ( mph kmh ) Pressure ( in mb ) Visibility ( mi km ) Precip ( " mm )
12:52 am 00:52 Mostly Cloudy 66 18.9 60 15.6 81 81 N 6 9 30.37 1029 10 16.0934 0 0
1:52 am 01:52 Mostly Cloudy 67 19.4 60 15.6 79 79 N 9 15 30.39 1029 10 16.0934 0 0
2:08 am 02:08 Cloudy 66 18.9 60 15.6 81 81 N 8 13 30.39 1029 10 16.0934 0 0
2:52 am 02:52 Cloudy 65 18.3 56 13.3 73 73 NNE 13 20 30.4 1030 10 16.0934 0 0
3:52 am 03:52 Cloudy 60 15.6 49 9.4 67 67 ENE 16 26 30.42 1030 10 16.0934 0 0
4:52 am 04:52 Cloudy 58 14.4 42 5.6 56 56 NE 14 22 30.43 1030 10 16.0934 0 0
5:52 am 05:52 Cloudy 57 13.9 41 5 55 55 NNE 14 22 30.43 1031 10 16.0934 0 0
6:52 am 06:52 Cloudy 56 13.3 41 5 57 57 NE 9 15 30.45 1031 10 16.0934 0 0
7:52 am 07:52 Cloudy 56 13.3 39 3.9 53 53 NE 14 22 30.46 1032 10 16.0934 0 0
8:52 am 08:52 Cloudy 56 13.3 38 3.3 51 51 NE 15 24 30.48 1032 10 16.0934 0 0.0254
9:52 am 09:52 Cloudy 55 12.8 41 5 59 59 ENE 14 22 30.48 1032 10 16.0934 0 0
10:52 am 10:52 Cloudy 55 12.8 44 6.7 67 67 NE 7 11 30.49 1033 10 16.0934 0 0
11:52 am 11:52 Cloudy 55 12.8 45 7.2 69 69 E 9 15 30.48 1032 10 16.0934 0 0.0254
12:52 pm 12:52 Cloudy 55 12.8 45 7.2 69 69 E 10 17 30.45 1031 10 16.0934 0 0
1:52 pm 13:52 Cloudy 55 12.8 46 7.8 72 72 SE 12 19 30.41 1030 10 16.0934 0 0
2:52 pm 14:52 Cloudy 54 12.2 47 8.3 77 77 ENE 6 9 30.46 1031 10 16.0934 0 0
3:52 pm 15:52 Cloudy with Light Drizzle 51 10.6 49 9.4 92 92 NNE 13 20 30.47 1032 5 8.0467 0 0.0254
4:04 pm 16:04 Cloudy with Light Drizzle 51 10.6 49 9.4 92 92 NNE 12 19 30.48 1032 4 6.43736 0 0.0254
4:19 pm 16:19 Cloudy with Light Drizzle 51 10.6 49 9.4 92 92 NE 13 20 30.5 1033 3 4.82802 0 0.0254
4:52 pm 16:52 Cloudy with Light Drizzle 50 10 48 8.9 93 93 NNE 14 22 30.51 1033 3 4.82802 0 0.0254
5:16 pm 17:16 Cloudy with Light Drizzle 50 10 48 8.9 93 93 NE 14 22 30.53 1034 2.5 4.02335 0 0.0254
5:23 pm 17:23 Cloudy with Light Drizzle 49 9.4 47 8.3 93 93 NNE 18 30 30.53 1034 3 4.82802 0.01 0.254
5:30 pm 17:30 Cloudy with Light Rain 49 9.4 47 8.3 93 93 NNE 17 28 30.53 1034 9 14.48406 0.01 0.254
5:41 pm 17:41 Cloudy with Light Rain 49 9.4 47 8.3 93 93 E 17 28 30.5 1033 9 14.48406 0.01 0.254
5:44 pm 17:44 Cloudy with Light Rain 49 9.4 47 8.3 93 93 ENE 16 26 30.53 1034 8 12.87472 0.01 0.254
5:52 pm 17:52 Cloudy with Rain 49 9.4 47 8.3 93 93 NE 14 22 30.52 1034 3 4.82802 0.05 1.27
6:02 pm 18:02 Cloudy with Light Rain 49 9.4 47 8.3 93 93 NE 18 30 30.53 1034 8 12.87472 0.01 0.254
6:09 pm 18:09 Cloudy with Light Rain 48 8.9 46 7.8 93 93 NE 16 26 30.53 1034 10 16.0934 0.01 0.254
6:16 pm 18:16 Cloudy 48 8.9 46 7.8 93 93 NE 15 24 30.53 1034 10 16.0934 0.01 0.254
6:23 pm 18:23 Cloudy 48 8.9 46 7.8 93 93 NE 14 22 30.53 1034 10 16.0934 0.01 0.254
6:52 pm 18:52 Cloudy 48 8.9 45 7.2 89 89 NE 21 33 30.53 1034 10 16.0934 0.01 0.254
7:52 pm 19:52 Cloudy 45 7.2 42 5.6 90 90 ENE 16 26 30.57 1035 10 16.0934 0 0
8:44 pm 20:44 Cloudy 45 7.2 41 5 86 86 ENE 17 28 30.59 1036 10 16.0934 0 0
8:52 pm 20:52 Cloudy 45 7.2 41 5 86 86 ENE 13 20 30.59 1036 10 16.0934 0 0
9:04 pm 21:04 Cloudy 45 7.2 41 5 86 86 ENE 10 17 30.59 1036 10 16.0934 0 0
9:52 pm 21:52 Cloudy 44 6.7 40 4.4 85 85 ENE 14 22 30.59 1036 10 16.0934 0 0
10:52 pm 22:52 Cloudy 44 6.7 39 3.9 83 83 ENE 12 19 30.61 1037 10 16.0934 0 0
11:52 pm 23:52 Cloudy 43 6.1 39 3.9 86 86 ENE 13 20 30.6 1036 10 16.0934 0 0

Powered by AerisWeather